Location: Oshawa
(43.9000°N, 78.8670°W)
Time: 09:43:49
(UTC-04:00)

Cosmos 1408 Rocket - Visible Passes

Search period start: 26 May 2015 00:00
Search period end: 05 June 2015 00:00
Orbit: 602 x 632 km, 82.6° (Epoch: 25 May)

Date Brightness Start Highest point End Pass type
(mag) Time Alt. Az. Time Alt. Az. Time Alt. Az.
26 May 5.6 00:58:29 17° W 00:59:44 18° WNW 01:02:43 10° NNW visible
26 May 3.4 23:37:42 64° SSE 23:38:16 76° E 23:42:37 10° NNE visible
27 May 6.2 01:15:47 10° WNW 01:16:48 11° WNW 01:17:35 10° NW visible
27 May 5.5 22:16:53 12° E 22:17:36 13° E 22:19:36 10° ENE visible
27 May 3.9 23:53:58 45° SW 23:54:58 58° W 23:59:16 10° N visible
28 May 4.9 22:33:08 21° ESE 22:34:05 22° E 22:37:31 10° NE visible
29 May 5.0 00:10:13 25° WSW 00:11:48 32° WNW 00:15:41 10° N visible
29 May 4.1 22:49:21 31° SE 22:50:38 40° E 22:54:43 10° NNE visible
30 May 5.8 00:26:26 13° WSW 00:28:43 19° WNW 00:31:44 10° NNW visible
30 May 3.4 23:05:33 36° S 23:07:15 75° E 23:11:36 10° NNE visible
31 May 6.3 00:44:37 10° W 00:45:47 11° WNW 00:46:43 10° NW visible
31 May 5.5 21:44:51 10° ESE 21:46:36 13° E 21:48:34 10° ENE visible
31 May 4.0 23:21:42 26° SSW 23:23:57 59° W 23:28:16 10° N visible
01 Jun 4.9 22:00:46 15° SE 22:03:04 22° E 22:06:30 10° NE visible
01 Jun 5.0 23:37:50 16° SW 23:40:46 32° WNW 23:44:41 10° N visible
02 Jun 4.1 22:16:51 18° SSE 22:19:37 39° E 22:23:43 10° NNE visible
02 Jun 5.9 23:54:32 10° WSW 23:57:42 19° WNW 00:00:46 10° NNW visible
03 Jun 3.5 22:32:54 17° S 22:36:14 74° E 22:40:36 10° NNE visible
04 Jun 6.4 00:13:26 10° W 00:14:45 11° WNW 00:15:50 10° NW visible
04 Jun 4.0 22:48:54 11° SSW 22:52:55 60° W 22:57:16 10° N visible
